Flag for Austria Weather past 2 weeks in Grieskirchen, Upper Austria, Austria

Now
68 °F

Mild.


Feels Like: 68 °F
Forecast: 56 / 87 °F
Wind: 1 mph from North

Location: Linz / Hoersching-Flughafen

Current Time: Aug 4, 2015 at 12:35:35 AM

Latest Report: Aug 3, 2015 at 11:20 PM


Visibility: N/A

Pressure: 30.04 "Hg

Humidity: 73%

Dew point: 59 °F

Location of GrieskirchenLocation

Historic Weather in Grieskirchen — Graph

°F

Grieskirchen temperature yesterday

Maximum temperature yesterday: 82 °F (at 3:50 PM)
Minimum temperature yesterday: 59 °F (at 12:20 AM)
Average temperature yesterday: 69 °F

Past Weeks' High & Low Weather Summary

 TemperatureHumidityPressure
High97 °F (Jul 22, 2:50 PM)100% (Jul 20, 4:50 AM)30.15 "Hg (Jul 20, 4:50 AM)
Low55 °F (Jul 26, 5:20 AM)22% (Jul 22, 2:50 PM)29.68 "Hg (Jul 25, 2:50 AM)
Average71 °F63%29.94 "Hg
* Reported Jul 19 10:20 PM — Aug 3 10:50 PM, Grieskirchen, Weather by CustomWeather, © 2015

Note: Actual official high and low records may vary slightly from our data, if they occured in-between our weather recording intervals... More about our weather records

Advertising

Grieskirchen weather history for previous 24 hours

 ConditionsComfort  
Time TempWeatherWind HumidityBarometerVisibility
10:50 PM
Mon, Aug 3
70 °FClear.1 mph69%30.04 "Hg10 mi
10:20 PM70 °FClear.1 mph69%30.07 "Hg10 mi
9:50 PM72 °FClear.2 mph65%30.07 "Hg10 mi
9:20 PM73 °FSunny.2 mph61%30.07 "Hg10 mi
8:50 PM75 °FSunny.1 mph50%30.04 "Hg10 mi
8:20 PM77 °FPassing clouds.2 mph51%30.04 "HgN/A
7:50 PM81 °FPassing clouds.1 mph42%30.04 "HgN/A
7:20 PM82 °FPassing clouds.2 mph37%30.04 "HgN/A
6:50 PM82 °FPassing clouds.2 mph37%30.04 "HgN/A
6:20 PM82 °FPassing clouds.6 mph40%30.07 "HgN/A
5:50 PM82 °FPassing clouds.5 mph37%30.07 "HgN/A
5:20 PM82 °FPassing clouds.6 mph37%30.07 "HgN/A
4:50 PM82 °FPassing clouds.6 mph40%30.07 "HgN/A
4:20 PM81 °FPassing clouds.5 mph37%30.09 "HgN/A
3:50 PM82 °FPassing clouds.3 mph37%30.09 "HgN/A
3:20 PM81 °FPassing clouds.2 mph42%30.09 "HgN/A
2:50 PM79 °FPassing clouds.3 mph45%30.09 "HgN/A
2:20 PM79 °FPassing clouds.2 mph48%30.09 "HgN/A
1:50 PM77 °FPassing clouds.5 mph47%30.09 "HgN/A
1:20 PM77 °FPassing clouds.3 mph51%30.12 "HgN/A
12:50 PM75 °FPassing clouds.5 mph50%30.12 "HgN/A
12:20 PM73 °FMild.2 mph57%30.12 "HgN/A
11:50 AM72 °FPassing clouds.2 mph65%30.12 "HgN/A
11:20 AM70 °FPassing clouds.3 mph69%30.12 "HgN/A
10:50 AM66 °FPassing clouds.2 mph78%30.15 "HgN/A
10:20 AM66 °FPassing clouds.3 mph78%30.15 "Hg6 mi
9:50 AM64 °FScattered clouds.5 mph83%30.12 "Hg6 mi
9:20 AM63 °FScattered clouds.5 mph88%30.15 "Hg6 mi
8:50 AM63 °FPartly sunny.3 mph88%30.15 "Hg6 mi
8:20 AM61 °FPartly sunny.2 mph88%30.15 "Hg4 mi
7:50 AM59 °FFog.3 mph100%30.12 "Hg3 mi
7:20 AM59 °FFog.3 mph100%30.12 "Hg1 mi
6:50 AM59 °FFog.1 mph100%30.12 "Hg1 mi
6:20 AM59 °FFog.3 mph100%30.12 "Hg1 mi
5:50 AM59 °FFog.3 mph100%30.12 "Hg1 mi
5:20 AM59 °FFog.3 mph100%30.12 "Hg1 mi
4:50 AM59 °FFog.5 mph100%30.12 "Hg1 mi
4:20 AM59 °FFog.2 mph100%30.12 "Hg0 mi
3:50 AM59 °FFog.1 mph100%30.12 "Hg1 mi
3:20 AM59 °FFog.1 mph100%30.12 "Hg0 mi
2:50 AM59 °FFog.1 mph100%30.12 "Hg0 mi
2:20 AM59 °FFog.2 mph100%30.12 "Hg0 mi
1:50 AM59 °FFog.3 mph100%30.15 "Hg2 mi
1:20 AM59 °FFog.3 mph100%30.15 "Hg3 mi
12:50 AM59 °FPassing clouds.2 mph100%30.15 "Hg4 mi
12:20 AM59 °FFog.3 mph100%30.15 "Hg3 mi
Weather by CustomWeather, © 2015

See weather overviewHow to use our weather pages